Regional Weather Roundup
Issued by NWS

Home | Current Version | Previous Version | Text Only | Print | Product List | Glossary On
Versions: 1 2 3 4 5 6 7 8 9 10 11 12 13 14 15 16 17 18 19 20 21 22 23 24 25 26 27 28 29 30 31 32 33 34 35 36 37 38 39 40 41 42 43 44 45 46 47 48 49 50
000
ASUS43 KLMK 202210
RWRKY
KENTUCKY REGIONAL WEATHER ROUNDUP
NATIONAL WEATHER SERVICE LOUISVILLE KY
600 PM EDT WED SEP 20 2017

NOTE "FAIR" INDICATES FEW OR NO CLOUDS BELOW 12,000 FEET
WITH NO SIGNIFICANT WEATHER AND/OR OBSTRUCTIONS TO VISIBILITY.

KYZ001>023-026-027-061>063-070>075-202300-
WESTERN AND SOUTH CENTRAL KENTUCKY

CITY           SKY/WX    TMP DP  RH WIND       PRES   REMARKS
PADUCAH        SUNNY     90  69  50 SW9       29.93F HX  94
HENDERSON      PTSUNNY   89  70  53 VRB5      29.95S HX  94
OWENSBORO      MOSUNNY   91  71  51 S8        29.95F HX  97
HOPKINSVILLE   SUNNY     88  70  55 SW8       29.96F HX  93
BOWLING GREEN  SUNNY     86  72  62 SE7       29.98S HX  92
GLASGOW        SUNNY     87  69  54 SW6       30.00S HX  91
$$

KYZ024-025-028>034-038-045-046-053-202300-
NORTH CENTRAL KENTUCKY

CITY           SKY/WX    TMP DP  RH WIND       PRES   REMARKS
LOUISVILLE/SDF PTSUNNY   88  69  53 SW8       29.97S HX  92
LOUISVILLE/LOU PTSUNNY   86  74  67 E6        29.98S HX  94
FORT KNOX      MOSUNNY   85  70  60 S3        29.97F HX  90
$$

KYZ035>037-039>044-047>052-055>060-089>105-202300-
NORTHEAST KENTUCKY

CITY           SKY/WX    TMP DP  RH WIND       PRES   REMARKS
LEXINGTON      SUNNY     86  66  51 CALM      30.02S
COVINGTON      MOSUNNY   84  70  62 W7        30.01R
FRANKFORT      SUNNY     86  65  49 CALM      30.00S
$$

KYZ054-064>069-076>088-106>120-202300-
SOUTHEAST KENTUCKY

CITY           SKY/WX    TMP DP  RH WIND       PRES   REMARKS
JACKSON        SUNNY     83  65  54 NW3       30.04S
LONDON         PTSUNNY   83  64  52 W3        30.03S
SOMERSET       MOSUNNY   82  64  54 W5        30.03S
MIDDLESBORO    MOSUNNY   84  64  51 N5        30.03S
MONTICELLO     PTCLDY    84  70  62 W8G16     30.04R
$$





USA.gov is the U.S. government's official web portal to all federal, state and local government web resources and services.